Date,TemperatureHighF,TemperatureAvgF,TemperatureLowF,DewpointHighF,DewpointAvgF,DewpointLowF,HumidityHigh,HumidityAvg,HumidityLow,PressureMaxIn,PressureMinIn,WindSpeedMaxMPH,WindSpeedAvgMPH,GustSpeedMaxMPH,PrecipitationSumIn
2013-8-1,72.9,64.6,56.8,61.3,58.6,52.0,91,82,60,29.78,29.73,3,1,0,0.01
2013-8-2,75.7,63.7,52.5,61.1,56.1,49.4,90,77,56,29.79,29.69,5,1,0,0.00
2013-8-3,125.8,67.2,53.4,81.7,55.2,50.0,91,68,27,29.92,29.76,5,1,0,0.00
2013-8-4,73.8,63.0,53.2,55.1,51.7,48.2,85,68,48,30.03,29.92,6,1,0,0.00
2013-8-5,73.2,62.9,52.0,55.2,51.4,47.5,87,67,50,29.98,29.82,4,1,0,0.00
2013-8-6,77.5,68.4,62.2,65.5,60.6,52.9,87,77,62,29.82,29.74,9,2,0,0.19
2013-8-7,83.5,72.5,63.1,69.0,64.8,59.6,90,78,57,29.77,29.68,7,2,0,0.39
2013-8-8,80.8,69.5,63.5,65.5,58.3,53.1,88,69,48,29.88,29.78,6,2,0,0.00
2013-8-9,78.6,73.4,59.9,59.6,56.0,52.4,88,55,46,29.85,29.79,5,1,0,0.00
2013-8-10,74.5,66.2,60.1,56.7,54.5,52.8,79,67,52,29.99,29.94,2,0,0,0.00
2013-8-11,77.7,74.8,62.1,60.4,58.7,54.4,76,58,52,29.97,29.95,4,2,0,0.00
2013-8-12,63.1,62.9,62.6,59.8,59.1,58.5,89,88,86,29.89,29.86,0,0,0,0.25
2013-8-13,67.8,62.6,53.8,50.7,46.0,42.8,85,55,48,29.92,29.79,8,3,0,0.24
2013-8-14,72.3,61.4,47.1,52.3,48.6,42.3,86,64,46,30.04,29.97,5,2,0,0.01
2013-8-15,74.1,58.9,44.6,54.8,48.8,41.6,89,72,47,30.04,29.94,3,1,0,0.00
2013-8-16,82.2,63.3,47.7,56.1,51.1,44.6,89,69,39,30.04,29.96,5,1,0,0.00
2013-8-17,81.9,76.3,57.0,58.5,55.7,51.9,83,50,42,30.14,30.05,4,2,0,0.00
2013-8-18,85.6,77.9,64.6,60.0,58.1,56.5,79,51,41,30.08,29.96,3,1,0,0.00
2013-8-19,85.5,72.5,53.8,61.9,57.4,50.9,90,61,41,29.98,29.89,4,1,0,0.00
2013-8-20,86.9,72.4,55.8,63.7,59.9,52.9,90,68,45,30.00,29.93,5,1,0,0.00
2013-8-21,86.4,80.9,62.8,67.4,65.7,59.8,90,61,52,29.98,29.85,5,2,0,0.00
2013-8-22,82.2,75.9,66.6,65.3,63.5,61.7,89,67,54,29.91,29.86,4,1,0,0.00
2013-8-23,86.0,71.4,53.6,58.8,54.7,50.4,90,58,38,30.08,29.95,6,1,0,0.00
2013-8-24,84.0,62.7,51.8,61.2,53.8,48.7,91,75,41,30.18,30.07,2,0,0,0.00
2013-8-25,87.6,77.7,58.5,63.1,60.0,54.5,90,56,44,30.16,30.01,6,2,0,0.00
2013-8-26,87.4,78.4,66.2,69.1,66.1,58.4,85,67,53,30.00,29.83,5,1,0,0.00
2013-8-27,81.3,73.4,69.3,72.8,69.2,66.3,91,87,72,29.85,29.67,7,1,0,1.32
2013-8-28,80.6,73.8,67.8,70.7,69.8,63.5,92,88,70,29.84,29.64,6,2,0,1.23
2013-8-29,88.5,78.0,64.4,68.0,65.7,62.0,92,68,46,29.93,29.85,4,1,0,0.00
2013-8-30,88.3,74.0,64.9,69.7,65.3,62.4,92,77,51,29.85,29.60,7,2,0,0.00
2013-8-31,74.7,70.2,64.8,64.8,62.6,60.3,87,77,67,29.70,29.67,4,1,0,0.06